• In Österreich
  • Länderverzeichnis
  • Für 7 Tage
  • Wassertemperatur
  • Satellitenkarten
  • Wetterkarte
  • News
  • Widgets
  • user-avatar
    Anmelden

    Stündliche Wetter Julara

    Heute, 23 Mai, Mittwoch

    Zeit Temperatur Niederschläge Wind Luftdruck Luftfeuchtigkeit
    00:00 +14°C° 0 mm 5 m/S 725 mmHg 40%
    01:00 +14°C° 0 mm 5 m/S 725 mmHg 41%
    02:00 +13°C° 0 mm 4 m/S 724 mmHg 42%
    03:00 +13°C° 0 mm 4 m/S 724 mmHg 44%
    04:00 +12°C° 0 mm 4 m/S 724 mmHg 45%
    05:00 +12°C° 0 mm 4 m/S 724 mmHg 45%
    06:00 +12°C° 0 mm 4 m/S 724 mmHg 46%
    07:00 +13°C° 0 mm 5 m/S 724 mmHg 44%
    08:00 +14°C° 0 mm 6 m/S 725 mmHg 41%
    09:00 +15°C° 0 mm 7 m/S 725 mmHg 39%
    10:00 +17°C° 0 mm 7 m/S 725 mmHg 34%
    11:00 +20°C° 0 mm 7 m/S 724 mmHg 30%
    12:00 +21°C° 0 mm 7 m/S 724 mmHg 25%
    13:00 +22°C° 0 mm 7 m/S 724 mmHg 23%
    14:00 +22°C° 0 mm 6 m/S 723 mmHg 21%
    15:00 +23°C° 0 mm 6 m/S 723 mmHg 19%
    16:00 +21°C° 0 mm 6 m/S 723 mmHg 22%
    17:00 +19°C° 0 mm 5 m/S 723 mmHg 25%
    18:00 +18°C° 0 mm 4 m/S 723 mmHg 28%
    19:00 +17°C° 0 mm 4 m/S 723 mmHg 30%
    20:00 +15°C° 0 mm 4 m/S 723 mmHg 33%
    21:00 +14°C° 0 mm 4 m/S 723 mmHg 36%
    22:00 +13°C° 0 mm 4 m/S 723 mmHg 38%
    23:00 +12°C° 0 mm 4 m/S 723 mmHg 41%

    Morgen, 24 Mai, Donnerstag

    Zeit Temperatur Niederschläge Wind Luftdruck Luftfeuchtigkeit
    00:00 +12°C° 0 mm 4 m/S 723 mmHg 43%
    01:00 +11°C° 0 mm 3 m/S 723 mmHg 46%
    02:00 +11°C° 0 mm 3 m/S 722 mmHg 48%
    03:00 +10°C° 0 mm 3 m/S 722 mmHg 50%
    04:00 +10°C° 0 mm 3 m/S 722 mmHg 52%
    05:00 +10°C° 0 mm 4 m/S 722 mmHg 54%
    06:00 +8°C° 0 mm 4 m/S 722 mmHg 56%
    07:00 +11°C° 0 mm 4 m/S 722 mmHg 52%
    08:00 +13°C° 0 mm 5 m/S 723 mmHg 48%
    09:00 +14°C° 0 mm 5 m/S 723 mmHg 43%
    10:00 +16°C° 0 mm 5 m/S 723 mmHg 38%
    11:00 +19°C° 0 mm 5 m/S 722 mmHg 33%
    12:00 +20°C° 0 mm 5 m/S 722 mmHg 28%
    13:00 +21°C° 0 mm 5 m/S 721 mmHg 26%
    14:00 +22°C° 0 mm 4 m/S 721 mmHg 24%
    15:00 +23°C° 0 mm 4 m/S 720 mmHg 22%
    16:00 +21°C° 0 mm 4 m/S 720 mmHg 24%
    17:00 +20°C° 0 mm 4 m/S 720 mmHg 26%
    18:00 +18°C° 0 mm 4 m/S 720 mmHg 29%
    19:00 +17°C° 0 mm 4 m/S 721 mmHg 31%
    20:00 +15°C° 0 mm 4 m/S 721 mmHg 34%
    21:00 +15°C° 0 mm 4 m/S 721 mmHg 36%
    22:00 +14°C° 0 mm 4 m/S 721 mmHg 39%
    23:00 +13°C° 0 mm 4 m/S 721 mmHg 42%

    übermorgen, 25 Mai, Freitag

    Zeit Temperatur Niederschläge Wind Luftdruck Luftfeuchtigkeit
    00:00 +13°C° 0 mm 4 m/S 721 mmHg 45%
    01:00 +12°C° 0 mm 4 m/S 721 mmHg 48%
    02:00 +12°C° 0 mm 4 m/S 720 mmHg 52%
    03:00 +11°C° 0 mm 4 m/S 720 mmHg 55%
    04:00 +11°C° 0 mm 4 m/S 720 mmHg 58%
    05:00 +11°C° 0 mm 3 m/S 720 mmHg 60%
    06:00 +10°C° 0 mm 3 m/S 720 mmHg 63%
    07:00 +12°C° 0 mm 4 m/S 720 mmHg 59%
    08:00 +14°C° 0 mm 5 m/S 721 mmHg 54%
    09:00 +16°C° 0 mm 6 m/S 721 mmHg 50%
    10:00 +19°C° 0 mm 6 m/S 721 mmHg 44%
    11:00 +21°C° 0 mm 6 m/S 720 mmHg 38%
    12:00 +23°C° 0 mm 6 m/S 720 mmHg 32%
    13:00 +25°C° 0 mm 5 m/S 719 mmHg 29%
    14:00 +26°C° 0 mm 5 m/S 719 mmHg 26%
    15:00 +26°C° 0 mm 4 m/S 718 mmHg 23%
    16:00 +25°C° 0 mm 3 m/S 718 mmHg 26%
    17:00 +22°C° 0 mm 3 m/S 719 mmHg 29%
    18:00 +20°C° 0 mm 2 m/S 719 mmHg 31%
    19:00 +20°C° 0 mm 3 m/S 719 mmHg 32%
    20:00 +19°C° 0 mm 3 m/S 719 mmHg 33%
    21:00 +19°C° 0 mm 4 m/S 720 mmHg 34%
    22:00 +18°C° 0 mm 4 m/S 719 mmHg 36%
    23:00 +17°C° 0 mm 4 m/S 719 mmHg 38%

    26 Mai, Samstag

    Zeit Temperatur Niederschläge Wind Luftdruck Luftfeuchtigkeit
    00:00 +17°C° 0 mm 4 m/S 719 mmHg 40%
    01:00 +15°C° 0 mm 4 m/S 719 mmHg 40%
    02:00 +15°C° 0 mm 4 m/S 719 mmHg 40%
    03:00 +15°C° 0 mm 4 m/S 719 mmHg 40%
    04:00 +15°C° 0 mm 4 m/S 719 mmHg 41%
    05:00 +15°C° 0 mm 4 m/S 719 mmHg 41%
    06:00 +14°C° 0 mm 4 m/S 719 mmHg 42%
    07:00 +17°C° 0 mm 4 m/S 720 mmHg 39%
    08:00 +19°C° 0 mm 4 m/S 720 mmHg 36%
    09:00 +20°C° 0 mm 4 m/S 721 mmHg 32%
    10:00 +21°C° 0 mm 4 m/S 720 mmHg 30%
    11:00 +23°C° 0 mm 4 m/S 720 mmHg 28%
    12:00 +25°C° 0 mm 4 m/S 720 mmHg 25%
    13:00 +25°C° 0 mm 4 m/S 720 mmHg 24%
    14:00 +26°C° 0 mm 4 m/S 719 mmHg 24%
    15:00 +26°C° 0 mm 4 m/S 719 mmHg 23%
    16:00 +25°C° 0 mm 3 m/S 719 mmHg 25%
    17:00 +22°C° 0 mm 3 m/S 719 mmHg 28%
    18:00 +20°C° 0 mm 2 m/S 719 mmHg 30%
    19:00 +20°C° 0 mm 2 m/S 719 mmHg 31%
    20:00 +19°C° 0 mm 2 m/S 720 mmHg 33%
    21:00 +19°C° 0 mm 2 m/S 720 mmHg 34%
    22:00 +18°C° 0 mm 2 m/S 720 mmHg 35%
    23:00 +18°C° 0 mm 2 m/S 720 mmHg 36%

    27 Mai, Sonntag

    Zeit Temperatur Niederschläge Wind Luftdruck Luftfeuchtigkeit
    00:00 +17°C° 0 mm 2 m/S 720 mmHg 37%
    01:00 +17°C° 0 mm 3 m/S 720 mmHg 39%
    02:00 +15°C° 0 mm 4 m/S 720 mmHg 42%
    03:00 +15°C° 0 mm 4 m/S 720 mmHg 44%
    04:00 +14°C° 0 mm 4 m/S 720 mmHg 49%
    05:00 +14°C° 0 mm 4 m/S 720 mmHg 55%
    06:00 +13°C° 0 mm 5 m/S 720 mmHg 60%
    07:00 +14°C° 0 mm 5 m/S 721 mmHg 56%
    08:00 +16°C° 0 mm 5 m/S 721 mmHg 53%
    09:00 +17°C° 0 mm 5 m/S 722 mmHg 49%
    10:00 +20°C° 0 mm 4 m/S 722 mmHg 43%
    11:00 +22°C° 0 mm 4 m/S 721 mmHg 37%
    12:00 +25°C° 0 mm 3 m/S 721 mmHg 31%
    13:00 +25°C° 0 mm 3 m/S 721 mmHg 29%
    14:00 +26°C° 0 mm 2 m/S 720 mmHg 28%
    15:00 +26°C° 0 mm 1 m/S 720 mmHg 26%
    16:00 +25°C° 0 mm 2 m/S 720 mmHg 29%
    17:00 +23°C° 0 mm 2 m/S 720 mmHg 31%
    18:00 +21°C° 0 mm 2 m/S 720 mmHg 34%
    19:00 +20°C° 0 mm 3 m/S 721 mmHg 36%
    20:00 +19°C° 0 mm 4 m/S 721 mmHg 38%
    21:00 +19°C° 0 mm 4 m/S 722 mmHg 41%
    22:00 +18°C° 0 mm 4 m/S 722 mmHg 43%
    23:00 +18°C° 0 mm 4 m/S 722 mmHg 45%

    28 Mai, Montag

    Zeit Temperatur Niederschläge Wind Luftdruck Luftfeuchtigkeit
    00:00 +17°C° 0 mm 4 m/S 722 mmHg 47%
    01:00 +15°C° 0 mm 4 m/S 721 mmHg 47%
    02:00 +15°C° 0 mm 4 m/S 721 mmHg 47%
    03:00 +14°C° 0 mm 4 m/S 721 mmHg 48%
    04:00 +14°C° 0 mm 4 m/S 721 mmHg 50%
    05:00 +13°C° 0 mm 3 m/S 722 mmHg 52%
    06:00 +13°C° 0 mm 3 m/S 722 mmHg 54%
    07:00 +15°C° 0 mm 4 m/S 722 mmHg 51%
    08:00 +17°C° 0 mm 4 m/S 723 mmHg 48%
    09:00 +19°C° 0 mm 4 m/S 723 mmHg 45%
    10:00 +21°C° 0 mm 4 m/S 723 mmHg 41%
    11:00 +22°C° 0 mm 4 m/S 723 mmHg 38%
    12:00 +25°C° 0 mm 4 m/S 722 mmHg 35%
    13:00 +26°C° 0 mm 3 m/S 722 mmHg 32%
    14:00 +26°C° 0 mm 1 m/S 721 mmHg 29%
    15:00 +25°C° 0 mm 0 m/S 721 mmHg 26%
    16:00 +23°C° 0 mm 0 m/S 721 mmHg 29%
    17:00 +23°C° 0 mm 1 m/S 721 mmHg 33%
    18:00 +21°C° 0 mm 1 m/S 721 mmHg 36%
    19:00 +20°C° 0 mm 1 m/S 721 mmHg 36%
    20:00 +19°C° 0 mm 2 m/S 722 mmHg 36%
    21:00 +19°C° 0 mm 2 m/S 722 mmHg 36%
    22:00 +19°C° 0 mm 3 m/S 722 mmHg 37%
    23:00 +18°C° 0 mm 3 m/S 722 mmHg 37%
    Mehr zeigen